Regional Weather Roundup
Issued by NWS Albany, NY

Home | Current Version | Previous Version | Graphics & Text | Print | Product List | Glossary On
Versions: 1 2 3 4 5 6 7 8 9 10 11 12 13 14 15 16 17 18 19 20 21 22 23 24 25 26 27
000
ASUS41 KALY 231210
RWRALY

NEW YORK STATE HOURLY WEATHER ROUNDUP
NATIONAL WEATHER SERVICE ALBANY NY
800 AM EDT FRI JUN 23 2017

NOTE: "FAIR" INDICATES FEW OR NO CLOUDS BELOW 12,000 FEET WITH NO
SIGNIFICANT WEATHER AND/OR NO OBSTRUCTIONS TO VISIBILITY.

NYZ032-033-038>043-046>054-057>066-NYZ062>081-082-084-231300-
EAST


CITY           SKY/WX    TMP DP  RH WIND       PRES   REMARKS
ALBANY         CLOUDY    74  66  76 S9        29.77S
GLENS FALLS    NOT AVBL
POUGHKEEPSIE   SUNNY     77  69  76 CALM      29.80S
NEWBURGH       PTSUNNY   77  72  83 W6        29.83F
MONTGOMERY     CLOUDY    77  70  79 SW9       29.81F
ISLIP          CLOUDY    77  72  84 SW8       29.84S
NEW YORK CITY  CLOUDY    81  72  74 SW9       29.81F
CENTRAL PARK   CLOUDY    79  71  76 VRB5      29.85S
$$

NYZ005>009-017-018-044>046-055-056-231300-
CENTRAL


CITY           SKY/WX    TMP DP  RH WIND       PRES   REMARKS
FULTON         CLOUDY    71  66  84 CALM      29.73S
SYRACUSE       CLOUDY    73  68  84 NE5       29.72F
ROME           CLOUDY    72  67  84 E3        29.74F
ELMIRA         MOSUNNY   75  70  83 S8        29.76F
BINGHAMTON     PTSUNNY   70  64  83 SW8       29.82F
MONTICELLO     CLOUDY    68  66  94 CALM      29.86F
$$

NYZ026>034-041>043-087-231300-
NORTH


CITY           SKY/WX    TMP DP  RH WIND       PRES   REMARKS
WATERTOWN      RAIN      67  67 100 SW3       29.72R VSB 1
FORT DRUM      NOT AVBL
OGDENSBURG     LGT RAIN  69  68  96 S7        29.68S
MASSENA        LGT RAIN  69  68  96 SW8       29.68F
SARANAC LAKE   LGT RAIN  64  64 100 SW7       29.76F
PLATTSBURGH    RAIN      63  61  93 S7        29.73S FOG
$$

NYZ001>004-010>016-019>021-085-231300-
WEST


CITY           SKY/WX    TMP DP  RH WIND       PRES   REMARKS
NIAGARA FALLS  CLOUDY    76  66  71 SW15      29.68F
BUFFALO        PTSUNNY   75  66  73 S13       29.70F
DUNKIRK        PTSUNNY   75  67  76 S10       29.70F
JAMESTOWN      CLOUDY    70  63  78 SW14G21   29.76F
WELLSVILLE     PTSUNNY   72  64  76 SW10G17   29.82S
ROCHESTER      CLOUDY    76  68  76 SW8       29.71F
PENN YAN       CLOUDY    74  65  73 S7        29.75F
$$

             KEY
       WCI = WIND CHILL INDEX
       VSB = VISIBILITY
       HX  = HEAT INDEX
$$




USA.gov is the U.S. government's official web portal to all federal, state and local government web resources and services.